Temperature
7 6 5 6 6 7 7 7 7 8 8 8 7 7 7 7 7 7 7 8 8 8 8 8 8 8 8 8 8 8 8 8 8 8 8 8 8 8 7 7 7 7 7 7
6 6 6 7 7 7 7 7 7 7 7 7 6 6 7 7 7 7 7 7 7 7 7 8 8 8 8 8 8 8 7 8 7 7 7 7 7 7 7 7 7 7 7 6
6 6 7 7 6 7 6 6 6 6 6 6 6 6 6 6 6 7 7 7 7 7 7 7 7 7 7 7 7 7 7 7 7 7 7 7 7 6 6 6 6 6 6 6
6 6 7 6 6 6 6 6 6 6 5 4 5 5 5 5 5 5 5 6 6 6 6 6 6 6 6 6 6 6 6 6 6 6 6 6 6 6 6 6 5 5 5 5
5 6 6 6 6 6 5 6 6 5 4 4 4 4 5 4 5 5 4 5 5 6 6 6 6 6 6 6 6 6 6 6 6 6 5 5 5 5 5 5 5 5 5 5
5 6 5 5 5 6 5 5 4 3 3 4 4 4 4 4 4 4 4 5 5 5 5 5 5 5 5 5 5 5 5 5 5 5 5 5 5 4 4 4 4 4 4 4
4 5 5 5 5 5 4 3 3 3 2 3 4 3 4 4 4 4 4 4 5 5 5 5 5 5 5 5 4 4 4 4 4 4 4 4 4 4 4 4 4 4 4 4
3 3 4 4 4 4 3 3 3 4 3 3 3 3 4 4 4 5 5 4 4 5 5 4 4 4 4 4 4 4 4 4 4 4 4 4 4 4 3 3 3 3 3 3
3 3 4 4 4 4 3 3 3 2 2 2 3 3 3 4 3 3 3 3 4 4 4 4 4 4 4 4 3 3 3 3 3 3 3 3 3 3 3 3 3 2 2 2
2 2 3 3 4 4 3 2 1 2 3 3 3 2 3 3 3 3 2 2 3 4 4 4 4 4 3 3 3 3 3 3 3 3 3 2 2 2 2 2 2 2 2 2
2 1 2 2 2 3 2 2 2 1 2 3 3 3 3 3 2 2 2 3 3 4 4 3 3 3 3 3 3 2 2 2 2 2 2 2 2 2 2 2 2 2 2 1
2 1 1 2 2 3 3 2 1 2 1 1 1 3 3 2 2 2 2 3 3 3 3 3 3 3 3 2 2 2 2 2 2 2 2 1 1 1 1 1 1 1 1 1
1 0 1 2 2 1 1 1 1 0 0 -0 1 3 3 2 2 3 3 3 3 3 3 3 2 2 2 2 2 2 2 2 1 1 1 1 1 1 1 1 1 1 1 1
2 0 1 2 2 1 1 1 1 0 0 0 1 2 2 2 2 2 2 2 3 2 2 2 2 2 2 2 1 1 1 1 1 1 1 1 0 0 0 0 0 0 0 0
1 -0 -0 0 1 1 1 1 1 0 0 0 1 1 2 2 2 2 2 2 2 2 2 2 1 1 1 1 1 1 1 1 0 0 0 -0 -0 -0 -0 -0 -0 -0 -0 -0
-1 -1 -1 -0 1 1 1 1 1 1 1 0 1 1 2 2 2 2 2 2 1 1 1 1 1 1 1 1 1 0 0 0 -0 -0 -0 -0 -1 -1 -1 -1 -1 -1 -1 -1
-2 -2 -1 -0 -0 0 0 1 0 0 0 1 1 2 2 1 1 1 2 1 1 1 1 1 1 1 1 0 0 -0 -0 -0 -0 -1 -1 -1 -1 -1 -1 -1 -1 -1 -1 -1
-2 -2 -2 -1 -1 0 2 1 1 1 1 0 1 1 1 1 2 2 2 1 1 1 1 0 0 0 0 0 -0 -0 -1 -1 -1 -1 -1 -1 -1 -1 -2 -1 -2 -2 -2 -2
-2 -2 -2 -2 -1 -0 1 1 0 0 0 0 0 1 1 1 1 1 2 1 1 1 1 0 0 0 -0 -0 -0 -1 -1 -1 -1 -1 -2 -2 -2 -2 -2 -2 -2 -2 -2 -2
-2 -2 -2 -2 -1 0 2 1 1 1 1 1 1 0 0 -0 -0 0 1 1 1 0 0 0 -0 -0 -1 -1 -1 -1 -1 -1 -2 -2 -2 -2 -2 -2 -2 -2 -2 -3 -3 -3
-2 -2 -2 -2 -1 -0 1 0 1 1 2 2 1 1 0 -1 0 1 1 0 0 -0 -0 -0 -1 -1 -1 -1 -1 -1 -2 -2 -2 -2 -2 -2 -3 -3 -3 -3 -3 -3 -3 -3
-2 -2 -2 -2 -1 0 0 -0 0 1 2 2 2 1 1 1 1 0 0 -0 -0 -1 -1 -1 -1 -1 -1 -1 -2 -2 -2 -2 -2 -2 -3 -3 -3 -3 -3 -3 -3 -3 -4 -4
-2 -1 -2 -1 0 1 1 1 2 2 2 2 1 1 1 0 0 -0 -1 -1 -1 -1 -1 -1 -2 -1 -2 -2 -2 -2 -2 -3 -3 -3 -3 -3 -3 -3 -4 -4 -4 -4 -4 -4
-3 -2 -2 -2 -1 -0 1 2 2 2 2 2 1 1 0 -0 -0 -1 -1 -1 -1 -2 -2 -2 -2 -2 -2 -2 -2 -2 -3 -3 -3 -3 -3 -3 -4 -4 -4 -4 -4 -4 -4 -5
-2 -3 -3 -2 -2 -1 1 1 2 1 1 1 1 0 -0 -1 -1 -1 -1 -2 -2 -2 -2 -2 -2 -2 -2 -2 -3 -3 -3 -3 -3 -3 -3 -4 -4 -4 -4 -4 -5 -5 -5 -5
-3 -2 -2 -1 -0 -1 1 2 1 1 1 0 -0 -0 -1 -1 -1 -2 -2 -2 -2 -2 -2 -3 -3 -3 -3 -3 -3 -3 -3 -4 -4 -4 -4 -4 -4 -4 -4 -5 -5 -5 -5 -5
Wind_Speed
1 3 3 6 6 4 3 4 6 5 3 3 8 10 9 6 4 5 5 6 5 4 3 2 2 2 2 2 3 2 2 1 2 1 1 1 1 2 1 1 2 2 2 2
3 2 5 4 3 3 3 5 5 5 3 3 6 10 9 7 7 8 8 7 6 3 1 1 1 1 2 2 2 2 2 2 2 2 2 2 1 1 2 1 1 2 2 2
4 3 2 1 2 3 5 5 5 4 5 3 3 7 6 4 3 3 4 5 5 5 5 3 1 1 1 1 2 2 2 2 2 2 1 1 1 1 1 1 1 2 2 2
2 2 1 1 2 2 5 3 3 3 2 4 1 5 7 4 4 4 4 4 4 4 3 2 1 1 1 2 2 2 2 2 2 2 2 2 2 2 2 2 2 2 2 2
2 1 1 2 3 2 3 2 2 2 2 3 2 4 7 2 5 7 5 5 4 3 3 2 2 2 2 1 1 1 1 2 2 2 3 3 2 2 2 2 2 2 2 3
2 1 1 2 1 1 1 3 3 3 2 3 5 5 7 4 6 5 4 4 4 3 2 2 1 0 0 1 1 1 0 1 2 2 3 3 3 2 2 2 2 3 2 2
3 3 2 1 2 2 3 3 3 4 2 6 3 4 8 5 5 5 6 5 4 3 3 2 2 1 1 1 1 1 1 1 2 2 2 3 3 3 4 3 3 3 2 2
1 5 3 1 2 2 2 4 4 4 4 5 2 6 6 4 3 2 2 2 2 2 3 3 3 2 2 2 2 1 1 2 2 2 2 3 3 3 3 3 3 3 3 3
3 4 2 1 0 3 2 2 3 3 1 3 5 6 6 2 2 1 0 1 2 3 3 3 3 3 3 3 3 3 2 2 2 2 2 2 2 3 3 3 2 3 3 3
4 3 4 2 2 1 2 3 3 3 2 4 5 5 4 4 5 4 3 3 4 3 3 3 3 3 3 3 2 2 2 3 2 2 2 2 2 2 2 2 2 2 3 2
2 2 3 1 3 4 2 1 2 2 3 3 4 6 4 5 5 5 6 6 5 5 5 4 4 3 2 1 1 1 2 2 2 2 2 2 2 1 1 2 2 2 2 2
3 3 3 5 3 2 4 4 5 3 4 3 3 7 4 4 3 3 4 4 4 4 4 3 3 2 2 2 2 2 2 2 2 1 1 1 1 1 1 2 2 2 2 2
3 3 1 4 2 1 2 3 4 3 2 4 4 7 2 1 2 2 3 4 4 3 3 2 2 2 3 2 2 2 2 2 2 1 1 1 1 1 2 2 2 2 2 2
3 3 6 8 6 4 4 5 5 5 4 6 9 10 7 6 6 5 5 4 4 4 3 2 2 2 2 2 2 2 2 2 1 1 1 1 2 2 2 2 1 1 2 2
3 4 6 8 7 5 7 9 9 10 10 9 9 10 12 9 8 8 6 5 4 4 3 3 3 3 2 2 2 2 2 2 1 1 1 2 2 2 1 1 1 1 1 2
2 3 2 5 5 6 9 11 11 12 11 12 12 14 11 8 5 6 6 5 5 5 5 3 3 3 3 3 3 2 2 2 1 1 1 2 2 2 2 1 1 1 1 2
3 3 2 5 4 4 10 11 11 9 9 9 12 12 7 6 7 7 7 6 6 5 4 4 4 4 4 3 3 3 3 2 1 1 1 1 2 2 2 2 1 2 2 2
6 4 3 2 2 7 8 4 9 10 10 10 9 8 7 7 7 6 5 5 5 5 4 5 4 4 3 3 3 2 2 1 1 1 1 1 2 2 2 1 1 2 1 1
6 6 3 2 4 8 8 4 5 7 9 10 11 10 7 5 5 6 5 4 5 5 5 5 5 4 3 3 3 2 2 1 1 2 2 2 2 2 1 1 1 1 1 1
3 4 4 3 4 7 7 3 2 3 7 7 8 8 6 2 4 7 4 3 4 3 3 3 3 2 2 2 2 2 2 2 2 2 2 2 1 1 1 1 1 1 1 1
4 4 6 7 7 9 7 3 4 3 7 3 6 7 6 6 6 5 4 4 3 3 3 2 2 2 3 2 2 3 3 3 3 2 1 1 1 1 1 1 1 1 1 1
8 7 7 6 7 9 4 5 7 8 3 2 4 5 5 5 5 4 4 4 3 3 3 2 2 2 2 2 3 3 3 3 1 1 1 1 1 1 0 0 0 0 0 1
8 9 7 9 9 5 6 7 6 3 3 4 4 4 4 4 5 4 4 4 4 4 3 3 2 2 2 2 3 4 3 2 1 1 0 1 1 0 0 0 0 1 1 1
5 4 5 6 9 7 7 6 5 4 5 5 4 4 4 5 5 5 5 4 4 3 3 2 2 2 2 2 2 3 2 2 2 1 1 0 0 0 1 0 0 0 1 1
7 6 5 8 8 7 7 7 7 5 4 4 4 3 4 4 5 5 5 5 4 3 2 2 3 3 3 2 2 1 2 3 2 1 1 0 0 0 0 1 1 1 2 2
7 8 8 10 8 7 7 5 4 5 5 5 4 4 4 5 5 4 5 4 3 3 2 2 3 3 3 2 2 1 2 3 3 1 1 1 1 0 0 0 2 3 2 3
Wind_Direction
93 95 206 223 213 224 223 237 259 262 276 258 248 261 265 250 225 223 227 227 227 227 235 216 195 172 142 140 142 146 157 164 142 149 165 175 219 232 220 229 216 213 222 227
54 248 244 238 224 235 250 261 266 287 301 268 264 268 265 241 227 221 223 225 218 221 229 216 175 123 140 159 165 156 174 180 181 193 193 189 199 235 228 233 236 229 230 238
186 241 259 206 221 241 254 234 241 265 318 315 301 291 264 258 235 228 225 224 217 207 201 201 192 176 137 159 194 195 197 196 200 196 156 85 61 7 335 242 237 248 236 242
224 273 293 276 267 227 258 243 237 257 298 279 213 280 276 254 258 247 244 235 223 207 192 188 173 176 197 218 223 219 205 197 198 175 158 157 193 236 255 246 252 268 253 250
263 258 277 253 260 236 241 275 253 241 210 287 247 236 282 287 257 257 246 234 216 205 187 183 184 199 216 228 238 248 227 201 190 177 177 174 206 238 272 271 262 266 264 258
287 285 215 235 283 222 284 20 25 46 86 266 229 202 274 244 239 252 241 227 214 204 188 183 186 150 242 309 319 316 307 234 203 186 187 181 197 221 249 266 255 260 262 265
325 313 323 57 41 21 63 77 18 351 335 254 225 209 251 259 253 231 225 224 216 197 188 192 196 202 225 254 282 286 271 268 233 201 205 202 204 207 224 240 242 251 253 260
236 280 270 299 169 190 193 147 167 217 241 279 284 236 255 273 276 224 190 186 191 201 207 215 219 214 220 227 236 243 253 263 250 228 224 219 211 212 233 241 237 244 249 251
194 251 302 286 270 142 153 195 174 153 240 272 269 283 302 285 320 337 158 203 235 236 225 226 232 226 230 231 238 232 237 258 252 241 239 229 221 221 237 248 240 250 257 263
167 243 275 300 47 39 150 153 109 146 210 262 282 275 264 262 264 267 253 245 251 255 249 238 236 238 238 232 255 257 242 254 267 249 247 252 234 229 228 239 249 261 270 270
148 188 285 315 206 203 149 153 157 172 199 204 266 269 238 227 231 233 241 240 238 242 248 238 236 237 239 242 241 243 252 265 273 256 251 251 246 238 236 245 256 260 270 267
155 144 250 251 256 220 193 188 164 183 240 215 228 266 272 235 236 227 246 250 248 244 248 236 233 212 212 222 231 232 246 254 265 268 270 272 255 246 245 259 268 268 268 267
150 140 333 328 320 327 235 211 190 173 174 203 220 261 292 317 301 276 258 256 255 250 251 247 232 214 220 224 231 238 245 246 253 262 289 310 279 257 252 259 272 290 286 288
149 179 199 220 238 210 244 237 208 182 207 231 233 254 280 287 279 277 275 267 251 248 242 238 233 232 235 237 236 240 255 244 236 227 238 275 275 256 249 260 285 295 291 292
137 218 236 252 260 238 241 242 222 215 218 223 246 250 263 265 260 260 262 263 256 260 257 241 230 232 242 257 257 254 264 262 237 223 243 263 275 283 275 268 275 279 287 294
156 208 240 267 259 251 261 252 235 232 231 237 257 267 264 266 266 267 263 259 256 258 257 247 236 234 238 248 247 255 265 268 240 228 257 277 292 301 291 277 278 278 279 286
174 169 204 261 288 301 266 239 219 224 223 212 235 249 268 279 270 256 254 254 254 255 252 248 247 245 240 242 236 236 247 258 245 250 271 285 291 299 294 301 307 286 283 289
170 170 188 255 354 248 250 226 211 222 238 225 236 251 253 256 270 260 249 245 258 261 261 258 250 250 247 235 231 229 237 226 232 251 265 277 286 295 302 301 291 286 291 288
183 170 175 190 245 271 284 242 197 209 254 231 232 248 258 269 295 276 254 245 249 253 255 253 247 245 239 229 219 203 221 215 228 252 262 265 267 285 292 287 286 291 307 310
162 162 174 188 223 248 255 235 181 142 270 240 218 236 241 236 274 270 266 271 265 261 257 256 250 241 233 239 204 188 207 211 236 248 259 264 264 263 266 263 281 291 295 299
184 191 202 212 235 260 252 205 133 180 252 249 213 225 219 220 236 264 277 272 263 259 262 261 242 228 229 224 188 195 209 229 244 248 255 267 277 258 237 251 282 295 332 333
187 188 201 193 223 252 207 151 188 221 248 246 230 222 221 237 254 265 269 264 264 260 266 255 239 246 236 199 183 198 226 237 226 214 238 269 280 256 192 125 342 3 12 350
203 199 197 201 221 244 188 206 225 210 230 244 233 233 222 241 254 260 264 264 256 244 253 238 227 245 248 201 186 204 229 212 179 163 229 294 311 315 18 148 122 6 339 307
242 207 206 244 257 252 242 244 250 238 239 247 239 233 225 238 250 259 264 265 257 254 247 234 220 228 244 225 204 208 201 167 159 167 200 266 296 337 357 4 8 326 294 293
219 190 213 247 263 280 264 235 234 240 243 250 247 229 224 235 250 252 260 263 254 256 248 220 214 221 231 220 205 197 172 154 157 164 169 205 212 240 335 347 291 276 265 270
203 199 208 239 236 222 247 239 222 224 241 241 239 249 247 235 246 253 260 261 251 251 245 222 222 228 230 213 208 199 176 162 159 163 170 204 214 235 269 340 350 345 324 323
Height
1486 1490 1492 1490 1489 1488 1489 1490 1489 1485 1483 1484 1483 1480 1476 1475 1476 1475 1475 1476 1476 1476 1476 1477 1477 1477 1478 1478 1479 1479 1480 1480 1481 1481 1481 1482 1482 1482 1483 1483 1483 1483 1484 1484
1490 1491 1487 1486 1487 1487 1488 1489 1488 1485 1483 1483 1482 1478 1473 1472 1471 1471 1471 1471 1472 1472 1473 1473 1474 1474 1474 1475 1476 1476 1477 1477 1477 1478 1478 1478 1478 1479 1479 1480 1480 1480 1480 1480
1489 1488 1485 1485 1487 1487 1487 1489 1487 1486 1484 1483 1483 1478 1472 1469 1468 1468 1468 1468 1468 1469 1469 1469 1470 1471 1471 1472 1472 1473 1473 1474 1474 1475 1475 1475 1476 1475 1475 1475 1476 1476 1476 1476
1488 1486 1486 1486 1486 1486 1487 1485 1485 1485 1489 1490 1487 1487 1472 1469 1468 1466 1466 1465 1465 1466 1466 1467 1468 1468 1469 1469 1470 1470 1470 1470 1471 1471 1471 1471 1471 1471 1471 1471 1471 1472 1472 1472
1488 1486 1486 1486 1486 1486 1486 1484 1484 1485 1489 1492 1489 1491 1475 1470 1468 1465 1463 1462 1463 1464 1464 1465 1466 1466 1467 1467 1467 1467 1467 1467 1467 1467 1468 1468 1468 1468 1468 1467 1467 1468 1468 1468
1488 1486 1486 1486 1485 1485 1485 1486 1487 1490 1493 1495 1487 1489 1477 1471 1465 1462 1461 1460 1461 1462 1463 1464 1464 1464 1464 1464 1464 1464 1463 1463 1463 1464 1464 1464 1464 1464 1465 1464 1463 1464 1464 1464
1491 1487 1485 1485 1486 1486 1487 1493 1500 1499 1502 1492 1484 1485 1474 1464 1461 1460 1459 1459 1459 1460 1461 1461 1462 1462 1462 1462 1462 1461 1461 1460 1460 1460 1460 1461 1461 1461 1461 1460 1460 1460 1460 1460
1494 1493 1487 1485 1486 1488 1489 1491 1500 1500 1500 1491 1483 1481 1469 1462 1459 1458 1458 1458 1459 1459 1459 1460 1459 1459 1459 1459 1459 1459 1458 1457 1457 1457 1457 1457 1457 1457 1457 1457 1456 1456 1456 1456
1495 1492 1487 1485 1485 1486 1489 1492 1492 1498 1500 1496 1485 1478 1467 1461 1459 1458 1458 1458 1458 1458 1458 1458 1458 1457 1457 1457 1457 1456 1455 1455 1454 1454 1454 1454 1453 1453 1453 1453 1453 1452 1452 1452
1491 1494 1488 1486 1485 1486 1487 1489 1495 1496 1494 1489 1483 1480 1471 1463 1461 1459 1458 1457 1456 1456 1456 1456 1455 1455 1455 1454 1454 1454 1453 1452 1452 1451 1451 1450 1450 1450 1450 1450 1449 1449 1448 1448
1489 1495 1492 1488 1487 1487 1489 1490 1491 1495 1493 1491 1487 1476 1461 1460 1458 1457 1456 1455 1455 1454 1454 1454 1453 1453 1453 1453 1452 1452 1451 1450 1449 1448 1448 1447 1446 1446 1446 1446 1445 1445 1444 1444
1488 1494 1495 1489 1484 1484 1484 1486 1490 1493 1493 1493 1489 1476 1457 1457 1455 1455 1455 1454 1453 1453 1452 1452 1451 1451 1451 1450 1449 1449 1448 1447 1446 1445 1445 1443 1443 1443 1443 1442 1442 1441 1440 1440
1487 1493 1495 1488 1490 1487 1485 1484 1486 1489 1492 1493 1488 1471 1457 1456 1455 1454 1454 1452 1452 1451 1450 1450 1449 1449 1448 1447 1447 1446 1445 1444 1443 1442 1441 1440 1440 1439 1439 1438 1438 1437 1437 1436
1484 1489 1490 1485 1481 1484 1484 1482 1483 1486 1489 1486 1477 1465 1458 1456 1454 1453 1452 1451 1450 1449 1448 1447 1447 1446 1446 1445 1444 1443 1442 1441 1440 1439 1438 1438 1437 1436 1436 1435 1434 1434 1433 1433
1482 1486 1486 1482 1479 1480 1478 1477 1478 1480 1477 1477 1466 1462 1454 1452 1452 1450 1449 1448 1448 1447 1446 1445 1444 1444 1444 1443 1442 1441 1439 1438 1437 1436 1435 1435 1434 1433 1432 1431 1431 1430 1430 1430
1482 1485 1485 1482 1477 1476 1474 1470 1471 1471 1469 1468 1463 1457 1448 1448 1448 1448 1446 1446 1445 1444 1443 1442 1442 1441 1441 1440 1439 1438 1437 1435 1434 1433 1432 1432 1431 1430 1429 1428 1428 1427 1427 1427
1482 1484 1484 1481 1478 1476 1471 1461 1463 1462 1460 1460 1457 1450 1445 1446 1445 1444 1443 1442 1441 1441 1440 1440 1439 1438 1438 1437 1436 1435 1434 1433 1431 1430 1429 1429 1428 1427 1426 1426 1425 1425 1424 1424
1479 1482 1485 1483 1482 1476 1456 1451 1452 1453 1451 1451 1448 1444 1443 1443 1441 1441 1440 1439 1438 1438 1437 1437 1436 1435 1435 1434 1433 1432 1431 1430 1429 1427 1427 1426 1425 1425 1424 1423 1423 1423 1422 1421
1472 1477 1481 1483 1479 1466 1453 1448 1449 1451 1447 1442 1443 1441 1440 1440 1439 1437 1437 1437 1436 1435 1434 1433 1433 1432 1431 1430 1430 1429 1428 1427 1426 1425 1424 1423 1423 1422 1421 1421 1421 1420 1419 1419
1471 1473 1477 1478 1474 1464 1446 1443 1443 1447 1446 1436 1436 1437 1437 1438 1440 1435 1434 1433 1432 1432 1431 1430 1429 1428 1428 1427 1427 1426 1425 1424 1423 1423 1422 1421 1421 1420 1419 1419 1418 1418 1417 1417
1469 1471 1472 1471 1469 1455 1442 1441 1443 1449 1440 1432 1432 1432 1433 1434 1433 1431 1430 1429 1429 1428 1427 1426 1425 1424 1424 1424 1423 1423 1422 1421 1421 1420 1420 1419 1419 1418 1418 1417 1417 1416 1415 1415
1461 1464 1466 1466 1464 1451 1437 1439 1440 1435 1430 1430 1429 1429 1429 1429 1428 1427 1426 1426 1425 1424 1423 1423 1422 1421 1421 1420 1420 1419 1419 1419 1419 1418 1418 1417 1417 1416 1416 1415 1415 1414 1414 1413
1452 1449 1449 1448 1441 1432 1431 1430 1429 1429 1428 1428 1427 1426 1426 1426 1425 1424 1423 1422 1421 1421 1420 1419 1418 1418 1418 1417 1417 1417 1417 1417 1416 1416 1416 1415 1415 1415 1414 1414 1413 1412 1412 1411
1444 1441 1442 1440 1432 1428 1427 1426 1426 1426 1426 1425 1425 1424 1423 1422 1421 1421 1420 1419 1418 1417 1416 1416 1415 1415 1414 1414 1414 1414 1414 1414 1414 1414 1414 1414 1413 1413 1413 1412 1412 1411 1410 1409
1435 1436 1436 1434 1427 1425 1422 1422 1422 1422 1422 1422 1421 1421 1420 1419 1418 1417 1416 1415 1415 1414 1413 1413 1412 1412 1412 1412 1412 1412 1412 1412 1412 1412 1412 1412 1412 1411 1411 1411 1410 1409 1409 1408
1427 1428 1429 1424 1419 1420 1418 1418 1418 1418 1418 1418 1417 1417 1416 1416 1414 1414 1413 1412 1411 1411 1410 1409 1409 1409 1409 1409 1409 1410 1410 1410 1410 1410 1410 1410 1410 1410 1409 1409 1408 1408 1407 1407